TITAN 3C TRANSTAGE DEB, 27864

Orbit data source: Space-Track

TITAN 3C TRANSTAGE DEB, 27864 is space debris in HEO originally from a launch on Tue, 21 Dec 1965 UTC launched from the Air Force Eastern Test Range (AFETR). Debris objects in space refer to the collection of defunct objects orbiting the Earth. Examples of debris include non-operational satellites, rocket bodies, and fragments generated from explosions, collisions, or faulty payload assembly.

Loading next visibility...
Identifier
27864, 1965-108BK
Orbit
HEO
Country
Flag of USUS
Related business
Manufacturer
Unknown
Mission
Spacecraft
Bus & Motor
Unknown
Mass
Unknown
Launch date (UTC)
1965-12-21 (60 years ago)
Launch vehicle
Unknown
Launch site
Air Force Eastern Test Range (AFETR)
Object type
Payload
Rocket body
Debris
Shape & HBR
Unknown shape, 0.2 m
Radar Cross Section
Small (<0.1 m²)

Expand to show TLE details & history
Last TLE update: 2 days ago

TLE from 2 days ago
0 TITAN 3C TRANSTAGE DEB
1 27864U 65108BK  26032.80686375  .00000046  00000-0  56073-2 0  9996
2 27864  26.7698 234.7472 6679806 157.4571 351.4481  2.66382229131087
Epoch: 2026-02-01T19:21Z
TLE epoch observation values (Epoch: 2026-02-01T19:21:53.027Z)
Latitude
25.67191°
Longitude
-79.63188°
Altitude
2,219.933 km
Speed
8.638 km/s
True Right ascension
22h 51m 24s
True Declination
25° 33' 39"
Sunlit
Object was in daylight at epoch
Visualization orbit readout
Latitude
Unknown
Longitude
Unknown
Altitude
Unknown
Speed
Unknown
Apparent Right ascension
Unknown
Apparent Declination
Unknown
Sunlit
N/A
Visualization observer readout
Local Sidereal Time
00:52:27
Azimuth
Unknown
Elevation
Unknown
Doppler factor
Unknown
Orbital elements
Apogee altitude
30,292.892 km
Perigee altitude
921.404 km
Semi-major axis
21,985.285 km
Eccentricity
0.66798
Inclination
26.7698°
RAAN
234.7472°
Arg. of periapsis
157.4571°
True anomaly
308.47267°
Mean anomaly
351.4481°
Eccentric anomaly
335.69599°
Mean motion
0.6658 °/min
Orbital period
540.7 mins
BSTAR
0.0056073
Loading maneuver chart data...
Computing Atmospheric mass density...

Documentation

Showing up to 5 results
|